Simultaneous Nadir Overpasses (SNOs) Predictions

Prediction of SNOs between GOES-16 and METOP-C Satellite Orbit:

Table of predicted SNOs for the next 14.0 days since TLE Epoch: 3/16/2024
Index Date Time (GOES-16) GOES-16 Lat,Lon METOP-C Lat,Lon Distance(km) Time Diff (sec)
1 03/16/2024 14:44:38 0.05, -75.21 0.87, -78.98 429.09 80
2 03/17/2024 14:23:59 0.05, -75.22 -0.26, -73.99 140.35 80
3 03/19/2024 02:45:38 -0.05, -75.21 -0.79, -78.58 383.96 80
4 03/20/2024 02:22:18 -0.04, -75.22 0.34, -73.59 185.90 80
5 03/21/2024 14:41:10 0.04, -75.24 0.69, -78.15 330.89 80
6 03/22/2024 14:23:10 0.04, -75.26 -0.44, -73.16 239.65 80
7 03/24/2024 02:42:10 -0.04, -75.27 -0.58, -77.75 282.77 80
8 03/25/2024 02:18:49 -0.04, -75.28 0.50, -72.75 288.19 80
9 03/26/2024 14:37:41 0.04, -75.32 0.48, -77.32 227.39 80
10 03/27/2024 14:19:42 0.04, -75.34 -0.66, -72.33 343.89 80
11 03/29/2024 02:38:40 -0.04, -75.36 -0.40, -76.91 177.57 80
12 03/30/2024 02:15:21 -0.03, -75.37 0.75, -71.92 393.63 80
